Terug naar catalogus

STARLINK-30982

ActiefCommunicatieVLEO
NORAD 58512·PAYLOAD·🇺🇸 United States

Gelanceerd Dec 7, 2023 vanaf Cape Canaveral Space Force Station

Loading…

Volgende Passages (komende 24 uur)

TLE

VersSource: CelesTrak SupGP

Epoch: Sep 14, 2026, 22:03 UTC

1 58512C 23191E   26257.91923611 -.00092775  00000+0 -33612-2 0  2576
2 58512  42.9993 115.1326 0001367 273.4816 216.5641 15.27615993    10

Volg STARLINK-30982 in realtime met AllMySat

Download on the App Store